Regional Weather Roundup
Issued by NWS New Orleans/Baton Rouge, LA

Home | Current Version | Previous Version | Text Only | Print | Product List | Glossary On
Versions: 1 2 3 4 5 6 7 8 9 10 11 12 13 14 15 16 17 18 19 20 21 22 23 24 25 26 27 28 29 30 31 32 33 34 35 36 37 38 39 40 41 42 43 44 45 46 47 48 49 50
000
ASUS44 KLIX 022110
RWRLIX
NEW ORLEANS REGIONAL WEATHER ROUNDUP
NATIONAL WEATHER SERVICE NEW ORLEANS LA
400 PM CDT TUE SEP 02 2014

NOTE: "FAIR" INDICATES FEW OR NO CLOUDS BELOW 12,000 FEET WITH NO
      SIGNIFICANT WEATHER AND/OR OBSTRUCTIONS TO VISIBILITY.
      SKY/WX - SKY CONDITION AND SIGNIFICANT WEATHER.
      TMP - AIR TEMPERATURE.     DP    - DEWPOINT TEMPERATURE.
      RH  - RELATIVE HUMIDITY.   PRES  - PRESSURE.
      HI  - HEAT INDEX.          WCI   - WIND CHILL INDEX.

*  THESE STATIONS ARE NOT NWS OR FAA STATIONS AND ARE NOT UNDER
   NWS QUALITY CONTROL.

LAZ038-040-048-061>063-065>067-069-022200-
SOUTHEAST LOUISIANA

CITY           SKY/WX    TMP DP  RH WIND       PRES   REMARKS
N.O. AUDUBON     N/A     90  78  66 MISG        N/A  HX 104
N.O. INTL ARPT PTSUNNY   90  71  53 S14       29.99F HX  96
N.O. LAKEFRONT LGT RAIN  84  77  79 SE12      30.00F
N.O. DOWNTOWN* CLOUDY    81  70  69 E8        30.00F
SLIDELL        MOSUNNY   90  74  59 S8        29.99F HX  99
BATON ROUGE    TSTM      81  73  76 NW7       29.99S
BOOTHVILLE     LGT RAIN  79  75  87 NW5       30.01F FOG
BELLE CHASSE   PTSUNNY   89  73  59 S10       29.99F HX  97
BOGALUSA*        N/A     88  74  63 SW3       30.01F HX  96
GALLIANO*      NOT AVBL
NEW ROADS*       N/A     89  76  66 MISG      29.98F HX 100
GONZALES*        N/A     84  78  81 S7G17     29.99R HX  95
HAMMOND*       PTSUNNY   93  70  46 W5        30.00F HX  99
HOUMA*         MOSUNNY   90  72  55 S8        29.99F HX  96
PORT FOURCHON* PTCLDY    88  75  66 SE6       30.02F HX  97

$$

MSZ070-080>082-022200-
SOUTHERN MISSISSIPPI

CITY           SKY/WX    TMP DP  RH WIND       PRES   REMARKS
MCCOMB         MOSUNNY   92  72  51 SW6       29.99F HX  99
GULFPORT       MOSUNNY   89  76  65 S10       30.00F HX 100
BILOXI         PTSUNNY   90  76  62 S8        30.01F HX 101
PASCAGOULA     CLOUDY    85  76  74 SW3       30.02R

$$

COASTAL OBSERVATIONS
LAKE AND NEARSHORE STATIONS

STATION/POSITION TIME  TEMP    WIND        PRES    WAVE
                       AIR SEA DIR/SP/G            HT/PER
                 (UTC) (F)     (DEG/KT/KT) (MB)    (FT/S)
PASCAGOULA       2100   86     190/  6/  9 1016.0
WAVELAND YACHT   2100   85     180/  6/ 11 1015.4
GRAND ISLE       2100   87 85  160/  5/  8 1016.8
SOUTHWEST PASS   2100   94 91  130/  5/  9 1016.6
NEW CANAL        2100   87 83  150/  5/ 11 1016.3
SHELL BEACH      2100   85 83  180/  4/  7 1015.9

OFFSHORE STATIONS

STATION/POSITION TIME  TEMP    WIND        PRES    WAVE
                       AIR SEA DIR/SP/G            HT/PER
                 (UTC) (F)     (DEG/KT/KT) (MB)    (FT/S)
64 S DAUPHIN ISL 2100   83 88  130/  8/ 12 1016.4

$$



USA.gov is the U.S. government's official web portal to all federal, state and local government web resources and services.